Flag for Germany Weather past 2 weeks in Homberg (Efze), Hesse, Germany

Now
53 °F

Overcast.


Feels Like: 53 °F
Forecast: 49 / 56 °F
Wind: 2 mph from Southwest

Location: Fritzlar

Current Time: Oct 25, 2014 at 9:50:41 PM

Latest Report: Oct 25, 2014 at 9:00 PM


Visibility: 8 mi

Pressure: 30.19 "Hg

Humidity: 88%

Dew point: 49 °F

Location of Homberg (Efze)Location

Historic Weather in Homberg (Efze) — Graph

°F

Homberg (Efze) temperature yesterday

Maximum temperature yesterday: 56 °F (at 4:00 PM)
Minimum temperature yesterday: 45 °F (at 8:00 AM)
Average temperature yesterday: 50 °F

Past Weeks' High & Low Weather Summary

 TemperatureHumidityPressure
High66 °F (Oct 19, 5:00 PM)99% (Oct 12, 9:00 AM)30.25 "Hg (Oct 12, 9:00 AM)
Low43 °F (Oct 22, 5:00 AM)62% (Oct 23, 2:00 PM)29.50 "Hg (Oct 21, 6:00 PM)
Average54 °F86%29.95 "Hg
* Reported Oct 10 8:00 PM — Oct 25 8:00 PM, Homberg (Efze), Weather by CustomWeather, © 2014

Note: Actual official high and low records may vary slightly from our data, if they occured in-between our weather recording intervals... More about our weather records

Advertising

Homberg (Efze) weather history for previous 24 hours

 ConditionsComfort  
Time TempWeatherWind HumidityBarometerVisibility
8:00 PM
Oct 25
53 °FOvercast.2 mph87%30.18 "Hg7 mi
7:00 PM53 °FOvercast.3 mph87%30.17 "Hg7 mi
6:00 PM54 °FOvercast.3 mph85%30.16 "Hg9 mi
5:00 PM55 °FOvercast.5 mph82%30.14 "Hg9 mi
4:00 PM55 °FOvercast.5 mph81%30.13 "Hg9 mi
3:00 PM55 °FOvercast.5 mph79%30.12 "Hg11 mi
2:00 PM55 °FPartly sunny.5 mph78%30.12 "Hg11 mi
1:00 PM54 °FOvercast.5 mph79%30.13 "Hg11 mi
12:00 PM52 °FOvercast.3 mph81%30.13 "Hg11 mi
11:00 AM50 °FOvercast.5 mph82%30.12 "Hg11 mi
10:00 AM49 °FOvercast.3 mph84%30.12 "Hg9 mi
9:00 AM49 °FOvercast.3 mph87%30.11 "Hg9 mi
8:00 AM49 °FLight rain. Overcast.2 mph85%30.10 "Hg9 mi
7:00 AM49 °FOvercast.2 mph83%30.09 "Hg9 mi
6:00 AM49 °FCool.5 mph83%30.09 "Hg8 mi
5:00 AM49 °FCool.3 mph81%30.09 "Hg8 mi
4:00 AM48 °FCool.2 mph84%30.10 "Hg7 mi
3:00 AM48 °FCool.3 mph84%30.11 "Hg6 mi
2:00 AM47 °FCool.3 mph84%30.11 "Hg8 mi
1:00 AM47 °FCool.2 mph84%30.12 "Hg8 mi
12:00 AM47 °FCool.3 mph84%30.13 "Hg8 mi
11:00 PM
Oct 24
47 °FCool.3 mph84%30.13 "Hg9 mi
10:00 PM48 °FCool.2 mph81%30.14 "Hg9 mi
9:00 PM48 °FCool.2 mph82%30.14 "Hg10 mi
Weather by CustomWeather, © 2014

See weather overviewHow to use our weather pages